This is the latest recevied weather packets stored in our database for station/object BM1CKC-10. If no packets are shown the sender has not sent any weather packets the latest 10 day(s).
| Time | Temp. | Humidity | Pressure | Rain* | Wind** | Luminosity | Snow |
|---|---|---|---|---|---|---|---|
| 1777427397 | 28.89° C | 57% | 1004.7 hPa | - | - | - | - |
| 1777426197 | 28.89° C | 58% | 1004.8 hPa | - | - | - | - |
| 1777424997 | 28.89° C | 57% | 1005 hPa | - | - | - | - |
| 1777423798 | 28.89° C | 57% | 1004.8 hPa | - | - | - | - |
| 1777422597 | 28.33° C | 57% | 1004.7 hPa | - | - | - | - |
| 1777421397 | 28.33° C | 57% | 1004.9 hPa | - | - | - | - |
| 1777420198 | 28.33° C | 56% | 1004.9 hPa | - | - | - | - |
| 1777419014 | 26.11° C | 57% | 1004.9 hPa | - | - | - | - |
| 1777417798 | 24.44° C | 57% | 1004.9 hPa | - | - | - | - |
| 1777416599 | 25° C | 58% | 1004.8 hPa | - | - | - | - |
| 1777415398 | 25.56° C | 56% | 1004.5 hPa | - | - | - | - |
| 1777414198 | 25° C | 55% | 1004.3 hPa | - | - | - | - |
| 1777412998 | 25° C | 57% | 1004.2 hPa | - | - | - | - |
| 1777411798 | 25° C | 59% | 1004.1 hPa | - | - | - | - |
| 1777410598 | 25° C | 57% | 1003.9 hPa | - | - | - | - |
| 1777409398 | 25° C | 56% | 1003.8 hPa | - | - | - | - |
| 1777408198 | 25.56° C | 56% | 1003.6 hPa | - | - | - | - |
| 1777406998 | 25.56° C | 58% | 1003.4 hPa | - | - | - | - |
| 1777405798 | 25.56° C | 57% | 1003.5 hPa | - | - | - | - |
| 1777404598 | 25° C | 57% | 1003.6 hPa | - | - | - | - |
| 1777403398 | 25° C | 56% | 1003.6 hPa | - | - | - | - |
| 1777402198 | 25° C | 57% | 1003.7 hPa | - | - | - | - |
| 1777400999 | 25° C | 57% | 1003.8 hPa | - | - | - | - |
| 1777399798 | 24.44° C | 55% | 1004.2 hPa | - | - | - | - |
| 1777398598 | 24.44° C | 56% | 1004.5 hPa | - | - | - | - |
* Rain since midnight (hover to see other rain measurements)
** Current wind speed in m/s (hover to see current wind gust speed)